This demonstration page uses our WeatherBlox Daily Observations layout. Learn more.

Left ArrowRight Arrow

Hourly Observations for January 16, 2018

Temp ( °F °C ) Dew Point ( °F °C ) Humidity (%) Winds ( mph kmh ) Pressure ( in mb ) Visibility ( mi km ) Precip ( " mm )
12:56 am 00:56 Clear -2 -18.9 -10 -23.3 68 68 NNW 17 28 30.86 1045 10 16 0.00 0.00
1:56 am 01:56 Clear -3 -19.4 -10 -23.3 71 71 NNW 17 28 30.85 1045 10 16 0.00 0.00
2:56 am 02:56 Clear -3 -19.4 -11 -23.9 68 68 NNW 20 31 30.86 1045 10 16 0.00 0.00
3:43 am 03:43 Mostly Cloudy -4 -20 -11 -24 71 71 NNW 14 22 30.98 1049 10 16 0.00 0.00
3:56 am 03:56 Partly Cloudy -4 -20 -11 -23.9 71 71 NW 16 26 30.86 1045 10 16 0.00 0.00
4:56 am 04:56 Clear -4 -20 -11 -23.9 71 71 NW 15 24 30.86 1045 10 16 0.00 0.00
5:56 am 05:56 Clear -5 -20.6 -11 -23.9 75 75 NW 13 20 30.88 1046 10 16 0.00 0.00
6:56 am 06:56 Clear -5 -20.6 -12 -24.4 72 72 NNW 12 19 30.89 1046 10 16 0.00 0.00
7:56 am 07:56 Clear -6 -21.1 -12 -24.4 75 75 NNW 8 13 30.90 1046 10 16 0.00 0.00
8:56 am 08:56 Sunny -5 -20.6 -12 -24.4 72 72 N 10 17 30.90 1046 10 16 0.00 0.00
9:56 am 09:56 Sunny -3 -19.4 -10 -23.3 71 71 N 13 20 30.90 1046 10 16 0.00 0.00
10:56 am 10:56 Sunny 0 -17.8 -8 -22.2 69 69 NNW 10 17 30.90 1047 10 16 0.00 0.00
11:56 am 11:56 Sunny 3 -16.1 -5 -20.6 69 69 NW 9 15 30.88 1046 10 16 0.00 0.00
12:56 pm 12:56 Sunny 6 -14.4 -2 -18.9 69 69 WNW 7 11 30.84 1045 10 16 0.00 0.00
1:56 pm 13:56 Sunny 9 -12.8 0 -17.8 66 66 WNW 5 7 30.81 1044 10 16 0.00 0.00
2:56 pm 14:56 Sunny 11 -11.7 1 -17.2 64 64 NNW 5 7 30.79 1043 10 16 0.00 0.00
3:56 pm 15:56 Sunny 13 -10.6 2 -16.7 61 61 Calm 30.77 1042 10 16 0.00 0.00
4:56 pm 16:56 Sunny 11 -11.7 2 -16.7 67 67 SE 3 6 30.76 1042 10 16 0.00 0.00
5:56 pm 17:56 Clear 8 -13.3 0 -17.8 69 69 S 6 9 30.75 1041 10 16 0.00 0.00
6:56 pm 18:56 Clear 5 -15 -1 -18.3 76 76 S 8 13 30.73 1041 10 16 0.00 0.00
7:56 pm 19:56 Clear 4 -15.6 -1 -18.3 80 80 S 6 9 30.73 1041 10 16 0.00 0.00
8:56 pm 20:56 Clear 1 -17.2 -3 -19.4 83 83 S 7 11 30.73 1041 10 16 0.00 0.00
9:56 pm 21:56 Clear 1 -17.2 -4 -20 79 79 SSW 7 11 30.71 1040 10 16 0.00 0.00
10:56 pm 22:56 Clear 0 -17.8 -5 -20.6 79 79 SSW 6 9 30.69 1039 10 16 0.00 0.00
11:56 pm 23:56 Clear 1 -17.2 -4 -20 79 79 SSW 9 15 30.67 1039 10 16 0.00 0.00

Powered by AerisWeather